1488045600.73,21691,8.31,73116.0,-13.83,-36.91,-35.71,0,*69
1488045601.96,21692,8.38,73122.8,-13.85,-37.03,-35.77,0,*60
1488045603.23,21693,8.38,73122.8,-13.83,-37.15,-35.83,0,*6B
1488045604.49,21694,8.38,73122.0,-13.85,-37.09,-35.77,0,*6C
1488045605.71,21695,8.38,73120.3,-13.85,-36.97,-35.71,0,*6D
1488045606.97,21696,8.38,73122.8,-13.85,-37.21,-35.89,0,*65
1488045608.22,21697,8.38,73120.3,-13.85,-37.09,-35.77,0,*6F
1488045609.48,21698,8.38,73122.5,-13.85,-37.09,-35.77,0,*60
1488045610.73,21699,8.38,73126.3,-13.85,-37.09,-35.77,0,*61
1488045612.04,21700,8.38,73122.5,-13.83,-37.21,-35.83,0,*67
1488045613.29,21701,8.38,73120.3,-13.85,-37.09,-35.77,0,*61
1488045614.51,21702,8.38,73122.0,-13.85,-37.03,-35.71,0,*6E
1488045615.76,21703,8.38,73120.0,-13.85,-37.09,-35.77,0,*63
1488045617.0,21704,8.38,73122.3,-13.85,-37.03,-35.65,0,*6D
1488045618.25,21705,8.38,73118.8,-13.85,-36.97,-35.65,0,*60
1488045619.5,21706,8.38,73120.3,-13.85,-36.97,-35.53,0,*66
1488045620.79,21707,8.38,73122.8,-13.83,-36.91,-35.65,0,*62
1488045622.02,21708,8.38,73124.8,-13.85,-37.03,-35.77,0,*62
1488045623.27,21709,8.38,73126.3,-13.85,-37.09,-35.71,0,*6F
1488045624.51,21710,8.38,73126.3,-13.83,-36.97,-35.59,0,*6D
1488045625.76,21711,8.38,73124.3,-13.85,-36.91,-35.47,0,*63
1488045627.01,21712,8.38,73130.0,-13.85,-37.03,-35.53,0,*6F
1488045628.25,21713,8.38,73126.0,-13.85,-37.03,-35.53,0,*6E
1488045629.5,21714,8.38,73128.5,-13.85,-36.97,-35.53,0,*65
1488045630.75,21715,8.38,73126.5,-13.85,-37.09,-35.77,0,*64
1488045632.05,21716,8.38,73128.0,-13.83,-36.91,-35.41,0,*64
1488045633.32,21717,8.38,73128.3,-13.83,-36.91,-35.47,0,*63
1488045634.57,21718,8.38,73126.3,-13.85,-36.85,-35.53,0,*6A
1488045635.82,21719,8.38,73132.0,-13.83,-36.97,-35.47,0,*6B
1488045637.09,21720,8.38,73132.3,-13.83,-37.03,-35.65,0,*6D
1488045638.33,21721,8.38,73132.0,-13.85,-37.03,-35.53,0,*6F
1488045639.6,21722,8.38,73132.0,-13.85,-37.09,-35.65,0,*63
1488045640.85,21723,8.38,73134.8,-13.85,-36.97,-35.53,0,*61
1488045642.08,21724,8.38,73130.5,-13.85,-36.97,-35.47,0,*63
1488045643.37,21725,8.38,73134.0,-13.83,-36.79,-35.41,0,*62
1488045644.61,21726,8.38,73132.3,-13.85,-37.03,-35.65,0,*6D
1488045645.83,21727,8.38,73134.3,-13.85,-37.03,-35.47,0,*6C
1488045647.11,21728,8.38,73138.5,-13.83,-36.91,-35.29,0,*67
1488045648.35,21729,8.38,73132.8,-13.85,-36.79,-35.47,0,*6E
1488045649.63,21730,8.31,73132.0,-13.85,-36.91,-35.41,0,*66
1488045650.85,21731,8.38,73136.0,-13.85,-36.85,-35.47,0,*64
1488045652.08,21732,8.38,73134.8,-13.85,-36.85,-35.29,0,*6F
1488045653.32,21733,8.38,73138.3,-13.85,-36.97,-35.35,0,*60
1488045654.56,21734,8.31,73134.0,-13.85,-36.79,-35.17,0,*67
1488045655.81,21735,8.38,73136.5,-13.85,-36.79,-35.29,0,*6B
1488045657.05,21736,8.38,73138.3,-13.85,-36.79,-35.17,0,*65
1488045658.3,21737,8.38,73134.5,-13.85,-36.97,-35.35,0,*64
1488045659.59,21738,8.38,73142.3,-13.83,-36.91,-35.35,0,*6B
1488045660.87,21739,8.38,73140.0,-13.83,-36.91,-35.29,0,*67
1488045662.12,21740,8.38,73142.3,-13.87,-36.85,-35.29,0,*68
1488045663.37,21741,8.31,73140.5,-13.85,-36.79,-35.29,0,*68
1488045664.61,21742,8.31,73140.8,-13.85,-36.97,-35.35,0,*66
1488045665.84,21743,8.38,73142.0,-13.85,-36.97,-35.47,0,*62
1488045667.08,21744,8.38,73136.5,-13.85,-37.03,-35.65,0,*69
1488045668.35,21745,8.31,73136.0,-13.85,-37.09,-35.53,0,*67
1488045669.6,21746,8.38,73138.3,-13.85,-37.03,-35.35,0,*6E
1488045670.85,21747,8.38,73130.0,-13.85,-36.97,-35.35,0,*63
1488045672.07,21748,8.31,73124.5,-13.85,-37.03,-35.47,0,*65
1488045673.32,21749,8.38,73124.3,-13.85,-36.79,-35.29,0,*60
1488045674.59,21750,8.38,73124.5,-13.87,-36.97,-35.35,0,*67
1488045675.83,21751,8.31,73126.3,-13.87,-37.03,-35.47,0,*6F
1488045677.08,21752,8.38,73120.5,-13.87,-36.67,-35.01,0,*6D
1488045678.35,21753,8.38,73122.3,-13.87,-36.79,-35.13,0,*60
1488045679.64,21754,8.38,73120.8,-13.87,-36.61,-34.95,0,*61
1488045680.91,21755,8.38,73116.0,-13.85,-36.61,-34.83,0,*65
1488045682.17,21756,8.31,73098.8,-13.85,-36.49,-34.83,0,*6C
1488045683.42,21757,8.38,73094.3,-13.85,-36.61,-35.01,0,*6C
1488045684.69,21758,8.38,73102.5,-13.83,-36.73,-35.07,0,*60
1488045685.92,21759,8.38,73104.0,-13.85,-36.85,-35.29,0,*62
1488045687.17,21760,8.38,73120.8,-13.85,-36.73,-35.07,0,*6D
1488045688.39,21761,8.38,73118.0,-13.85,-36.67,-35.01,0,*6F
1488045689.62,21762,8.38,73118.5,-13.85,-36.67,-35.01,0,*6C
1488045690.89,21763,8.38,73116.3,-13.83,-36.73,-35.07,0,*68
1488045692.11,21764,8.38,73112.5,-13.85,-36.85,-35.17,0,*61
1488045693.33,21765,8.38,73118.0,-13.85,-36.85,-35.17,0,*60
1488045694.57,21766,8.38,73122.8,-13.85,-36.79,-35.01,0,*67
1488045695.82,21767,8.38,73116.0,-13.83,-36.73,-34.89,0,*6B
1488045697.08,21768,8.38,73116.0,-13.83,-36.97,-35.23,0,*6F
1488045698.3,21769,8.38,73118.0,-13.85,-36.85,-35.17,0,*6C
1488045699.55,21770,8.31,73114.0,-13.85,-36.79,-35.13,0,*63
1488045700.79,21771,8.38,73112.0,-13.85,-36.79,-35.01,0,*61
1488045702.07,21772,8.38,73108.5,-13.83,-36.73,-34.95,0,*62
1488045703.33,21773,8.38,73106.8,-13.85,-36.49,-34.83,0,*6B
1488045704.6,21774,8.38,73110.3,-13.85,-36.61,-34.95,0,*61
1488045705.85,21775,8.31,73092.0,-13.85,-36.61,-34.77,0,*6C
1488045707.09,21776,8.31,73100.3,-13.83,-36.55,-34.89,0,*6F
1488045708.33,21777,8.31,73102.5,-13.83,-36.55,-34.89,0,*6E
1488045709.58,21778,8.31,73094.8,-13.83,-36.43,-34.71,0,*61
1488045710.84,21779,8.38,73098.5,-13.85,-36.61,-34.83,0,*6B
1488045712.06,21780,8.38,73092.3,-13.85,-36.43,-34.71,0,*60
1488045713.31,21781,8.31,73096.8,-13.85,-36.31,-34.53,0,*64
1488045714.58,21782,8.38,73098.0,-13.83,-36.37,-34.47,0,*62
1488045715.82,21783,8.38,73098.0,-13.83,-36.55,-34.71,0,*62
1488045717.1,21784,8.38,73096.5,-13.85,-36.61,-34.95,0,*6E
1488045718.34,21785,8.31,73096.5,-13.83,-36.55,-34.77,0,*62
1488045719.61,21786,8.38,73096.0,-13.83,-36.61,-34.89,0,*67
1488045720.85,21787,8.38,73092.3,-13.83,-36.43,-34.77,0,*67
1488045722.09,21788,8.38,73098.8,-13.83,-36.55,-34.89,0,*6E
1488045723.36,21789,8.38,73104.0,-13.85,-36.49,-34.83,0,*6E
1488045724.61,21790,8.38,73104.8,-13.83,-36.55,-34.77,0,*66
1488045725.85,21791,8.31,73106.0,-13.83,-36.55,-34.77,0,*67
1488045727.1,21792,8.38,73104.0,-13.83,-36.55,-34.71,0,*62
1488045728.34,21793,8.38,73102.5,-13.83,-36.55,-34.77,0,*65
1488045729.58,21794,8.38,73094.3,-13.83,-36.43,-34.71,0,*63
1488045730.85,21795,8.38,73096.5,-13.81,-36.37,-34.35,0,*63
1488045732.09,21796,8.38,73100.5,-13.83,-36.43,-34.59,0,*6B
1488045733.34,21797,8.38,73108.5,-13.83,-36.19,-34.47,0,*6A
1488045734.6,21798,8.38,73112.0,-13.83,-36.37,-34.71,0,*6C
1488045735.86,21799,8.31,73118.3,-13.83,-36.19,-34.35,0,*61
1488045737.1,21800,8.38,73120.5,-13.81,-36.19,-34.35,0,*6C
1488045738.34,21801,8.31,73114.8,-13.81,-35.89,-34.19,0,*69
1488045739.57,21802,8.31,73108.5,-13.81,-35.89,-34.19,0,*6A
1488045740.79,21803,8.38,73132.0,-13.81,-35.89,-34.13,0,*61
1488045742.06,21804,8.38,73120.5,-13.79,-35.95,-34.13,0,*6C
1488045743.32,21805,8.38,73112.3,-13.79,-36.01,-34.19,0,*69
1488045744.59,21806,8.31,73106.3,-13.79,-35.77,-33.89,0,*66
1488045745.88,21807,8.38,73102.0,-13.79,-35.65,-33.89,0,*64
1488045747.09,21808,8.38,73102.8,-13.81,-35.89,-34.13,0,*6A
1488045748.36,21809,8.31,73110.5,-13.79,-35.83,-33.95,0,*6F
1488045749.63,21810,8.38,73112.3,-13.79,-35.95,-34.13,0,*69
1488045750.86,21811,8.31,73118.3,-13.79,-36.01,-34.25,0,*63
1488045752.1,21812,8.38,73114.8,-13.77,-35.83,-33.95,0,*6B
1488045753.33,21813,8.38,73086.8,-13.77,-35.59,-33.77,0,*61
1488045754.62,21814,8.38,73080.3,-13.75,-35.53,-33.73,0,*6A
1488045755.85,21815,8.38,73084.3,-13.75,-35.71,-33.83,0,*64
1488045757.14,21816,8.31,73084.5,-13.75,-35.95,-34.19,0,*69
1488045758.35,21817,8.38,73104.5,-13.77,-36.01,-34.13,0,*6E
1488045759.59,21818,8.31,73102.3,-13.77,-35.83,-34.07,0,*6D
1488045760.82,21819,8.31,73096.8,-13.75,-36.07,-34.25,0,*61
1488045762.06,21820,8.31,73106.0,-13.77,-36.31,-34.31,0,*69
1488045763.32,21821,8.31,73104.0,-13.75,-36.07,-34.35,0,*6B
1488045764.55,21822,8.38,73110.5,-13.75,-36.07,-34.25,0,*69
1488045765.82,21823,8.38,73098.8,-13.75,-35.95,-34.07,0,*60
1488045767.08,21824,8.38,73092.3,-13.75,-35.95,-34.07,0,*67
1488045768.37,21825,8.38,73098.8,-13.75,-35.95,-34.35,0,*67
1488045769.63,21826,8.38,73104.3,-13.77,-36.13,-34.31,0,*6F
1488045770.91,21827,8.38,73104.8,-13.75,-36.25,-34.35,0,*6D
1488045772.17,21828,8.38,73100.5,-13.75,-36.13,-34.25,0,*66
1488045773.43,21829,8.31,73104.8,-13.75,-35.95,-34.07,0,*6A
1488045774.69,21830,8.38,73104.8,-13.75,-35.77,-34.19,0,*61
1488045775.98,21831,8.38,73102.3,-13.75,-35.95,-34.19,0,*6C
1488045777.24,21832,8.38,73106.8,-13.75,-35.95,-34.25,0,*60
1488045778.5,21833,8.31,73106.0,-13.75,-36.07,-34.35,0,*68
1488045779.78,21834,8.31,73110.8,-13.71,-36.25,-34.35,0,*6B
1488045781.03,21835,8.38,73118.3,-13.71,-36.07,-34.35,0,*6A
1488045782.26,21836,8.38,73112.3,-13.71,-36.07,-34.25,0,*68
1488045783.5,21837,8.38,73108.3,-13.75,-36.07,-34.07,0,*6D
1488045784.76,21838,8.38,73114.8,-13.75,-36.07,-34.35,0,*63
1488045786.0,21839,8.38,73120.5,-13.75,-35.89,-34.07,0,*66
1488045787.27,21840,8.38,73114.3,-13.75,-35.77,-34.01,0,*6F
1488045788.51,21841,8.38,73112.8,-13.75,-35.89,-34.07,0,*69
1488045789.79,21842,8.38,73120.0,-13.75,-35.53,-33.73,0,*69
1488045791.05,21843,8.38,73124.5,-13.71,-35.71,-33.89,0,*69
1488045792.31,21844,8.38,73124.8,-13.71,-35.77,-34.01,0,*6F
1488045793.54,21845,8.38,73122.5,-13.71,-35.89,-34.07,0,*69
1488045794.75,21846,8.38,73124.3,-13.69,-36.01,-34.13,0,*65
1488045795.98,21847,8.31,73128.0,-13.71,-36.07,-34.25,0,*6E
1488045797.19,21848,8.38,73122.3,-13.69,-35.71,-33.83,0,*61
1488045798.42,21849,8.38,73116.8,-13.71,-35.59,-33.83,0,*63
1488045799.68,21850,8.31,73110.5,-13.71,-36.07,-34.19,0,*67
1488045800.93,21851,8.38,73122.3,-13.71,-36.07,-34.19,0,*66
1488045802.19,21852,8.38,73126.0,-13.71,-35.95,-34.07,0,*62
1488045803.46,21853,8.31,73118.0,-13.71,-35.77,-33.89,0,*6E
1488045804.7,21854,8.31,73112.8,-13.69,-35.89,-34.01,0,*66
1488045805.93,21855,8.31,73110.0,-13.71,-36.07,-34.25,0,*6D
1488045807.15,21856,8.38,73118.8,-13.71,-36.07,-34.25,0,*6E
1488045808.43,21857,8.38,73116.5,-13.71,-35.95,-34.19,0,*68
1488045809.67,21858,8.31,73112.8,-13.69,-35.89,-34.31,0,*69
1488045810.9,21859,8.38,73124.0,-13.71,-36.07,-34.25,0,*61
1488045812.15,21860,8.38,73124.3,-13.71,-35.89,-34.19,0,*61
1488045813.41,21861,8.38,73126.8,-13.71,-35.95,-34.07,0,*62
1488045814.7,21862,8.31,73124.3,-13.71,-35.95,-34.01,0,*67
1488045815.94,21863,8.38,73130.5,-13.71,-35.89,-34.07,0,*6D
1488045817.17,21864,8.31,73126.5,-13.69,-35.83,-33.83,0,*62
1488045818.41,21865,8.31,73120.5,-13.71,-35.77,-34.07,0,*6A
1488045819.64,21866,8.38,73124.5,-13.71,-35.89,-33.95,0,*64
1488045820.85,21867,8.38,73128.5,-13.69,-36.01,-34.07,0,*63
1488045822.11,21868,8.31,73130.3,-13.71,-35.89,-33.89,0,*67
1488045823.38,21869,8.38,73124.8,-13.69,-35.83,-34.01,0,*62
1488045824.59,21870,8.31,73128.8,-13.69,-35.89,-34.07,0,*66
1488045825.82,21871,8.31,73130.0,-13.71,-35.71,-33.95,0,*65
1488045827.05,21872,8.31,73124.5,-13.71,-35.59,-33.83,0,*6B
1488045828.31,21873,8.31,73126.8,-13.71,-35.77,-34.01,0,*6B
1488045829.57,21874,8.31,73120.3,-13.71,-35.89,-34.19,0,*64
1488045830.83,21875,8.38,73120.3,-13.71,-35.83,-34.07,0,*60
1488045832.09,21876,8.31,73126.3,-13.71,-35.95,-34.07,0,*64
1488045833.3,21877,8.31,73124.0,-13.69,-35.71,-33.95,0,*6A
1488045834.56,21878,8.31,73116.8,-13.71,-35.77,-34.01,0,*60
1488045835.84,21879,8.38,73126.3,-13.71,-35.95,-34.19,0,*64
1488045837.08,21880,8.38,73124.3,-13.71,-35.89,-34.07,0,*60
1488045838.31,21881,8.38,73130.3,-13.71,-35.89,-34.07,0,*61
1488045839.58,21882,8.38,73126.5,-13.71,-35.77,-34.01,0,*65
1488045840.84,21883,8.38,73126.3,-13.71,-35.89,-34.01,0,*65
1488045842.13,21884,8.38,73132.5,-13.75,-35.95,-34.19,0,*62
1488045843.36,21885,8.31,73124.5,-13.71,-35.89,-34.07,0,*65
1488045844.64,21886,8.31,73128.3,-13.71,-35.95,-34.19,0,*64
1488045845.92,21887,8.31,73130.5,-13.71,-35.95,-34.19,0,*65
1488045847.16,21888,8.38,73130.3,-13.71,-35.77,-34.07,0,*69
1488045848.39,21889,8.31,73130.5,-13.71,-35.89,-34.07,0,*69
1488045849.66,21890,8.31,73126.5,-13.71,-35.77,-34.01,0,*66
1488045850.92,21891,8.31,73128.0,-13.71,-35.71,-33.89,0,*66
1488045852.15,21892,8.31,73132.5,-13.69,-35.83,-33.95,0,*6C
1488045853.42,21893,8.38,73132.3,-13.71,-35.77,-33.89,0,*62
1488045854.68,21894,8.38,73128.8,-13.71,-35.71,-33.89,0,*63
1488045855.94,21895,8.31,73130.0,-13.71,-35.71,-34.01,0,*65
1488045857.19,21896,8.31,73130.3,-13.71,-35.71,-33.89,0,*61
1488045858.43,21897,8.31,73130.0,-13.75,-35.77,-34.07,0,*63
1488045859.67,21898,8.38,73128.0,-13.75,-35.89,-34.07,0,*6D
1488045860.91,21899,8.38,73130.5,-13.77,-35.65,-34.07,0,*6C
1488045862.17,21900,8.31,73126.8,-13.75,-35.71,-34.01,0,*6C
1488045863.44,21901,8.31,73124.3,-13.75,-35.71,-34.01,0,*6D
1488045864.7,21902,8.38,73120.5,-13.75,-35.59,-33.89,0,*63
1488045865.94,21903,8.38,73126.0,-13.77,-35.83,-34.07,0,*66
1488045867.17,21904,8.31,73124.3,-13.75,-35.71,-34.07,0,*6E
1488045868.44,21905,8.31,73126.8,-13.75,-35.77,-33.89,0,*68
1488045869.7,21906,8.31,73126.5,-13.75,-35.71,-33.89,0,*6D
1488045870.96,21907,8.31,73126.8,-13.75,-35.59,-33.89,0,*66
1488045872.22,21908,8.38,73124.0,-13.75,-35.59,-34.01,0,*6E
1488045873.46,21909,8.31,73124.3,-13.77,-35.59,-33.89,0,*6A
1488045874.72,21910,8.31,73128.0,-13.77,-35.65,-33.77,0,*6C
1488045875.97,21911,8.31,73124.0,-13.75,-35.53,-33.83,0,*61
1488045877.23,21912,8.31,73118.5,-13.77,-35.65,-33.89,0,*6F
1488045878.46,21913,8.31,73118.8,-13.75,-35.59,-33.83,0,*69
1488045879.7,21914,8.31,73120.3,-13.77,-35.59,-33.73,0,*63
1488045880.96,21915,8.31,73116.5,-13.77,-35.65,-33.77,0,*69
1488045882.22,21916,8.31,73118.5,-13.75,-35.47,-33.73,0,*6C
1488045883.5,21917,8.31,73116.5,-13.75,-35.53,-33.77,0,*6C
1488045884.77,21918,8.31,73116.5,-13.75,-35.47,-33.73,0,*62
1488045886.03,21919,8.31,73116.3,-13.77,-35.35,-33.77,0,*60
1488045887.29,21920,8.38,73112.3,-13.75,-35.35,-33.55,0,*68
1488045888.55,21921,8.31,73116.3,-13.77,-35.41,-33.73,0,*6C
1488045889.81,21922,8.31,73122.8,-13.77,-35.41,-33.73,0,*6F
1488045891.07,21923,8.31,73116.0,-13.77,-35.35,-33.61,0,*6E
1488045892.33,21924,8.31,73116.8,-13.77,-35.35,-33.73,0,*6A
1488045893.59,21925,8.31,73126.8,-13.75,-35.29,-33.61,0,*67
1488045894.83,21926,8.31,73122.8,-13.75,-35.29,-33.55,0,*63
1488045896.1,21927,8.31,73128.8,-13.77,-35.23,-33.43,0,*6D
1488045897.37,21928,8.31,73128.5,-13.77,-35.23,-33.43,0,*62
1488045898.63,21929,8.31,73130.3,-13.75,-35.13,-33.31,0,*67
1488045899.88,21930,8.31,73124.0,-13.77,-35.07,-33.37,0,*6E
1488045901.16,21931,8.38,73132.8,-13.75,-35.01,-33.31,0,*6D
1488045902.4,21932,8.31,73114.5,-13.77,-35.01,-33.31,0,*6C
1488045903.67,21933,8.31,73108.5,-13.75,-35.13,-33.31,0,*6C
1488045904.91,21934,8.38,73118.3,-13.75,-35.17,-33.37,0,*69
1488045906.15,21935,8.31,73110.3,-13.77,-35.17,-33.43,0,*69
1488045907.41,21936,8.31,73106.5,-13.75,-35.13,-33.31,0,*69
1488045908.69,21937,8.31,73120.0,-13.75,-35.01,-33.27,0,*6C
1488045909.95,21938,8.31,73118.3,-13.75,-35.13,-33.31,0,*67
1488045911.2,21939,8.31,73114.0,-13.77,-35.07,-33.37,0,*67
1488045912.48,21940,8.31,73118.0,-13.75,-35.01,-33.27,0,*6C
1488045913.75,21941,8.31,73112.8,-13.75,-35.01,-33.31,0,*6A
1488045915.05,21942,8.38,73126.0,-13.75,-34.95,-33.27,0,*62
1488045916.34,21943,8.31,73112.3,-13.71,-34.95,-33.31,0,*60
1488045917.58,21944,8.31,73124.3,-13.71,-35.01,-33.37,0,*6D
1488045918.88,21945,8.31,73138.0,-13.71,-34.95,-33.27,0,*61
1488045920.12,21946,8.31,73136.5,-13.71,-34.77,-33.15,0,*6F
1488045921.39,21947,8.31,73124.3,-13.71,-34.59,-32.97,0,*69
1488045922.63,21948,8.31,73106.5,-13.69,-34.71,-33.09,0,*63
1488045923.93,21949,8.31,73100.8,-13.71,-34.95,-33.31,0,*6A
1488045925.22,21950,8.31,73108.8,-13.71,-34.95,-33.31,0,*62
1488045926.44,21951,8.31,73122.3,-13.69,-34.71,-33.03,0,*61
1488045927.71,21952,8.31,73120.0,-13.71,-34.65,-33.15,0,*69
1488045928.97,21953,8.38,73124.5,-13.71,-34.65,-33.15,0,*68
1488045930.22,21954,8.31,73124.0,-13.69,-34.59,-33.09,0,*64
1488045931.46,21955,8.31,73132.5,-13.69,-34.71,-33.09,0,*6F
1488045932.68,21956,8.31,73132.8,-13.69,-34.71,-33.03,0,*66
1488045933.93,21957,8.31,73132.0,-13.69,-34.71,-33.09,0,*6D
1488045935.18,21958,8.31,73126.5,-13.69,-34.77,-33.27,0,*68
1488045936.45,21959,8.31,73120.0,-13.69,-34.95,-33.27,0,*65
1488045937.72,21960,8.31,73122.8,-13.69,-34.95,-33.31,0,*68
1488045938.99,21961,8.31,73114.3,-13.69,-34.95,-33.31,0,*69
1488045940.23,21962,8.31,73114.8,-13.71,-35.01,-33.37,0,*69
1488045941.48,21963,8.31,73114.5,-13.69,-34.89,-33.27,0,*61
1488045942.75,21964,8.31,73104.8,-13.69,-34.95,-33.27,0,*6B
1488045944.01,21965,8.31,73106.8,-13.71,-35.01,-33.49,0,*67
1488045945.28,21966,8.31,73120.5,-13.69,-34.95,-33.31,0,*6E
1488045946.55,21967,8.31,73134.3,-13.69,-34.95,-33.31,0,*6F
1488045947.83,21968,8.31,73116.0,-13.67,-34.77,-33.27,0,*65
1488045949.07,21969,8.31,73106.3,-13.67,-34.77,-33.21,0,*62
1488045950.32,21970,8.31,73104.8,-13.69,-34.77,-33.27,0,*62
1488045951.54,21971,8.31,73120.8,-13.69,-34.59,-33.03,0,*69
1488045952.76,21972,8.31,73118.0,-13.69,-34.71,-33.21,0,*60
1488045953.97,21973,8.31,73108.8,-13.69,-34.77,-33.21,0,*67
1488045955.22,21974,8.31,73114.8,-13.69,-34.59,-33.09,0,*66
1488045956.47,21975,8.31,73120.3,-13.71,-34.47,-32.91,0,*61
1488045957.74,21976,8.31,73120.8,-13.67,-34.53,-33.03,0,*6A
1488045958.98,21977,8.31,73130.3,-13.67,-34.77,-33.21,0,*6D
1488045960.23,21978,8.31,73118.0,-13.67,-34.77,-33.21,0,*62
1488045961.5,21979,8.31,73106.3,-13.67,-34.71,-33.27,0,*63
1488045962.78,21980,8.31,73130.0,-13.67,-34.71,-33.09,0,*69
1488045964.0,21981,8.31,73136.3,-13.65,-34.47,-33.21,0,*65
1488045965.22,21982,8.31,73138.8,-13.65,-34.59,-33.21,0,*69
1488045966.49,21983,8.31,73136.0,-13.67,-34.59,-33.09,0,*60
1488045967.77,21984,8.31,73142.5,-13.67,-34.77,-33.27,0,*67
1488045969.04,21985,8.31,73136.8,-13.67,-34.71,-33.09,0,*6C
1488045970.31,21986,8.31,73138.0,-13.67,-34.59,-33.09,0,*65
1488045971.56,21987,8.31,73132.5,-13.67,-34.71,-33.21,0,*64
1488045972.84,21988,8.31,73134.8,-13.67,-34.71,-33.27,0,*6D
1488045974.11,21989,8.31,73136.3,-13.67,-34.53,-33.03,0,*6A
1488045975.38,21990,8.31,73134.5,-13.67,-34.59,-33.27,0,*6E
1488045976.63,21991,8.31,73136.8,-13.67,-34.59,-33.21,0,*69
1488045977.88,21992,8.31,73136.8,-13.67,-34.59,-33.21,0,*6A
1488045979.15,21993,8.31,73128.5,-13.67,-34.59,-33.09,0,*61
1488045980.39,21994,8.31,73132.8,-13.67,-34.59,-33.21,0,*6C
1488045981.67,21995,8.31,73136.3,-13.67,-34.77,-33.27,0,*67
1488045982.95,21996,8.31,73134.8,-13.67,-34.71,-33.27,0,*62
1488045984.22,21997,8.31,73136.3,-13.67,-34.59,-33.27,0,*69
1488045985.5,21998,8.31,73144.3,-13.67,-34.77,-33.27,0,*6A
1488045986.76,21999,8.31,73140.5,-13.67,-34.41,-33.09,0,*62
1488045988.0,22000,8.31,73140.3,-13.69,-34.53,-33.21,0,*6F
1488045989.22,22001,8.31,73138.0,-13.69,-34.59,-33.21,0,*64
1488045990.5,22002,8.31,73130.0,-13.67,-34.59,-33.27,0,*6F
1488045991.77,22003,8.31,73128.5,-13.67,-34.53,-33.21,0,*62
1488045993.02,22004,8.31,73126.0,-13.65,-34.59,-33.27,0,*6B
1488045994.27,22005,8.31,73128.0,-13.67,-34.59,-33.21,0,*6E
1488045995.54,22006,8.31,73132.8,-13.67,-34.53,-33.03,0,*67
1488045996.81,22007,8.31,73132.8,-13.67,-34.59,-33.09,0,*66
1488045998.08,22008,8.31,73140.8,-13.67,-34.41,-33.09,0,*60
1488045999.35,22009,8.31,73148.0,-13.67,-34.53,-33.21,0,*68
1488046000.62,22010,8.31,73150.5,-13.67,-34.53,-33.21,0,*60
1488046001.86,22011,8.31,73146.0,-13.67,-34.41,-33.03,0,*62
1488046003.1,22012,8.31,73134.8,-13.65,-34.25,-32.79,0,*6D
1488046004.39,22013,8.31,73138.3,-13.67,-34.35,-32.85,0,*6C
1488046005.66,22014,8.31,73140.3,-13.67,-34.41,-33.09,0,*6D
1488046006.93,22015,8.31,73134.0,-13.67,-34.35,-32.91,0,*6F
1488046008.2,22016,8.31,73124.5,-13.67,-34.31,-32.91,0,*68
1488046009.47,22017,8.31,73116.8,-13.67,-34.13,-32.85,0,*6C
1488046010.74,22018,8.31,73124.8,-13.67,-34.13,-32.85,0,*63
1488046012.01,22019,8.31,73130.8,-13.67,-34.31,-32.91,0,*67
1488046013.25,22020,8.31,73138.5,-13.65,-34.25,-32.79,0,*6C
1488046014.49,22021,8.31,73138.5,-13.65,-34.25,-32.85,0,*6E
1488046015.74,22022,8.31,73140.8,-13.65,-34.07,-32.85,0,*6D
1488046016.99,22023,8.31,73144.0,-13.65,-34.13,-32.79,0,*6A
1488046018.21,22024,8.31,73132.8,-13.65,-33.95,-32.69,0,*65
1488046019.44,22025,8.31,73120.3,-13.65,-34.07,-32.69,0,*68
1488046020.7,22026,8.31,73120.8,-13.67,-34.19,-32.91,0,*61
1488046021.95,22027,8.31,73122.8,-13.65,-34.13,-32.79,0,*6E
1488046023.17,22028,8.31,73122.5,-13.65,-33.95,-32.69,0,*69
1488046024.39,22029,8.31,73128.5,-13.65,-33.95,-32.69,0,*68
1488046025.63,22030,8.31,73126.5,-13.65,-33.95,-32.63,0,*6A
1488046026.86,22031,8.31,73120.5,-13.63,-34.07,-32.69,0,*6B
1488046028.1,22032,8.31,73112.0,-13.63,-34.13,-32.79,0,*6C
1488046029.35,22033,8.31,73106.0,-13.63,-34.25,-32.79,0,*68
1488046030.65,22034,8.31,73112.5,-13.61,-34.19,-32.79,0,*62
1488046031.88,22035,8.31,73120.8,-13.63,-34.25,-32.97,0,*6E
1488046033.12,22036,8.31,73126.0,-13.63,-34.25,-32.97,0,*6D
1488046034.37,22037,8.31,73124.5,-13.63,-34.31,-33.03,0,*65
1488046035.61,22038,8.31,73124.5,-13.63,-34.31,-33.03,0,*6A
1488046036.84,22039,8.31,73124.0,-13.63,-34.47,-33.03,0,*6A
1488046038.08,22040,8.31,73126.8,-13.65,-34.31,-33.03,0,*63
1488046039.32,22041,8.31,73120.5,-13.63,-34.35,-33.15,0,*67
1488046040.57,22042,8.31,73126.3,-13.61,-34.25,-32.91,0,*6A
1488046041.83,22043,8.31,73122.3,-13.63,-34.31,-32.97,0,*6A
1488046043.06,22044,8.31,73126.8,-13.63,-34.07,-32.91,0,*6E
1488046044.31,22045,8.31,73126.5,-13.63,-34.13,-32.85,0,*6F
1488046045.55,22046,8.31,73126.3,-13.63,-34.25,-32.97,0,*6A
1488046046.82,22047,8.31,73126.0,-13.61,-34.19,-32.91,0,*60
1488046048.06,22048,8.31,73126.8,-13.63,-34.31,-33.03,0,*6D
1488046049.3,22049,8.31,73124.5,-13.63,-34.13,-32.97,0,*60
1488046050.55,22050,8.31,73124.0,-13.63,-34.13,-32.97,0,*68
1488046051.79,22051,8.31,73126.0,-13.63,-34.25,-32.97,0,*6C
1488046053.03,22052,8.31,73128.5,-13.63,-34.13,-32.79,0,*6A
1488046054.25,22053,8.31,73124.3,-13.63,-33.95,-32.69,0,*63
1488046055.48,22054,8.31,73128.3,-13.63,-34.07,-32.69,0,*68
1488046056.7,22055,8.31,73124.3,-13.63,-33.95,-32.69,0,*65
1488046057.95,22056,8.31,73122.0,-13.63,-34.07,-32.85,0,*68
1488046059.2,22057,8.31,73126.5,-13.63,-34.07,-32.79,0,*6A
1488046060.48,22058,8.31,73120.5,-13.61,-34.07,-32.75,0,*6B
1488046061.72,22059,8.31,73126.0,-13.63,-33.95,-32.63,0,*63
1488046062.99,22060,8.31,73132.3,-13.63,-33.89,-32.63,0,*64
1488046064.23,22061,8.31,73136.0,-13.63,-33.89,-32.51,0,*64
1488046065.5,22062,8.31,73138.5,-13.63,-33.77,-32.45,0,*63
1488046066.75,22063,8.31,73138.3,-13.63,-33.77,-32.51,0,*67
1488046067.99,22064,8.31,73130.3,-13.61,-33.67,-32.23,0,*66
1488046069.25,22065,8.31,73116.0,-13.61,-33.55,-32.29,0,*6C
1488046070.55,22066,8.31,73110.5,-13.61,-33.73,-32.29,0,*6B
1488046071.85,22067,8.31,73124.5,-13.61,-33.73,-32.45,0,*60
1488046073.12,22068,8.31,73126.0,-13.61,-33.83,-32.63,0,*64
1488046074.41,22069,8.31,73124.0,-13.61,-33.73,-32.45,0,*6E
1488046075.66,22070,8.31,73126.0,-13.61,-33.55,-32.39,0,*69
1488046076.9,22071,8.31,73112.3,-13.61,-33.55,-32.39,0,*68
1488046078.17,22072,8.31,73124.0,-13.61,-33.83,-32.45,0,*6B
1488046079.41,22073,8.31,73128.5,-13.61,-33.83,-32.57,0,*69
1488046080.62,22074,8.31,73116.8,-13.59,-33.83,-32.57,0,*65
1488046081.87,22075,8.31,73126.0,-13.59,-33.83,-32.63,0,*63
1488046083.11,22076,8.31,73128.5,-13.59,-33.83,-32.63,0,*60
1488046084.36,22077,8.31,73128.3,-13.59,-33.83,-32.63,0,*61
1488046085.64,22078,8.31,73130.8,-13.57,-33.77,-32.69,0,*61
1488046086.85,22079,8.31,73122.0,-13.59,-33.83,-32.57,0,*68
1488046088.1,22080,8.31,73134.5,-13.59,-33.83,-32.63,0,*69
1488046089.34,22081,8.31,73132.8,-13.59,-33.83,-32.63,0,*68
1488046090.61,22082,8.31,73140.5,-13.59,-33.89,-32.75,0,*66
1488046091.83,22083,8.31,73132.0,-13.59,-33.55,-32.39,0,*6E
1488046093.11,22084,8.31,73130.8,-13.57,-33.77,-32.39,0,*67
1488046094.35,22085,8.31,73124.8,-13.59,-33.83,-32.63,0,*6C
1488046095.63,22086,8.31,73134.5,-13.57,-33.83,-32.75,0,*66
1488046096.91,22087,8.31,73130.8,-13.59,-33.73,-32.63,0,*61
1488046098.18,22088,8.31,73130.3,-13.59,-33.73,-32.63,0,*6E
1488046099.43,22089,8.31,73130.0,-13.59,-33.83,-32.75,0,*67
1488046100.68,22090,8.31,73130.5,-13.59,-33.83,-32.75,0,*6F